ET259 HUEN-HAAB

Flight info

Callsign ET259
Flight time N/A
Altitude 39000
Route IMVIP2B IMVIP UL432 EKBUL EKBUL2A
Aircraft B77W/H-SDE1E2E3FGHIJ2J3J4J5M1RWXY/LB1D1

Departure

Time 2026-05-07 08:40
Airport Entebbe International Airport (HUEN)

Arrival

Time N/A
Airport Addis Ababa Bole International Airport (HAAB)
Time Latitude Longitude Altitude Speed Heading
2026-05-07 08:21 0.04456 32.44179 3792 ft 0 kts 83°
2026-05-07 08:31 0.04454 32.44161 3785 ft 4 kts 83°
2026-05-07 08:31 0.04451 32.44135 3787 ft 4 kts 74°
2026-05-07 08:31 0.04438 32.44115 3792 ft 4 kts 18°
2026-05-07 08:31 0.04413 32.44114 3786 ft 4 kts 351°
2026-05-07 08:32 0.04406 32.44115 3789 ft 0 kts 352°
2026-05-07 08:34 0.04408 32.44115 3789 ft 2 kts 352°
2026-05-07 08:35 0.04434 32.44111 3790 ft 5 kts 352°
2026-05-07 08:35 0.04471 32.44107 3786 ft 6 kts 352°
2026-05-07 08:35 0.04515 32.44101 3786 ft 7 kts 352°
2026-05-07 08:35 0.04568 32.44093 3792 ft 8 kts 352°
2026-05-07 08:36 0.04630 32.44084 3786 ft 9 kts 352°
2026-05-07 08:36 0.04698 32.44074 3787 ft 11 kts 352°
2026-05-07 08:36 0.04775 32.44063 3792 ft 12 kts 352°
2026-05-07 08:36 0.04856 32.44038 3791 ft 13 kts 332°
2026-05-07 08:37 0.04953 32.44003 3831 ft 17 kts 349°
2026-05-07 08:37 0.05078 32.43984 3785 ft 20 kts 351°
2026-05-07 08:37 0.05213 32.43964 3783 ft 20 kts 351°
2026-05-07 08:37 0.05326 32.43895 3793 ft 20 kts 309°
2026-05-07 08:38 0.05399 32.43784 3795 ft 14 kts 303°
2026-05-07 08:38 0.05465 32.43706 3793 ft 15 kts 308°
2026-05-07 08:38 0.05429 32.43644 3793 ft 11 kts 184°
2026-05-07 08:38 0.05395 32.43647 3794 ft 0 kts 173°
2026-05-07 08:39 0.05322 32.43656 3792 ft 32 kts 173°
2026-05-07 08:39 0.04821 32.43724 3786 ft 113 kts 172°
2026-05-07 08:40 0.03783 32.43867 3778 ft 188 kts 173°
2026-05-07 08:40 0.02324 32.44020 4181 ft 216 kts 174°
2026-05-07 08:40 0.00783 32.44237 4833 ft 237 kts 172°
2026-05-07 08:40 -0.00909 32.44472 5432 ft 255 kts 170°
2026-05-07 08:41 -0.02672 32.44749 5964 ft 262 kts 171°
2026-05-07 08:41 -0.04537 32.45025 6594 ft 280 kts 171°
2026-05-07 08:41 -0.06539 32.45307 7241 ft 300 kts 171°
2026-05-07 08:41 -0.08674 32.45601 7876 ft 319 kts 171°
2026-05-07 08:42 -0.10893 32.46041 8409 ft 332 kts 157°
2026-05-07 08:42 -0.12827 32.47366 8977 ft 347 kts 130°
2026-05-07 08:42 -0.14075 32.49454 9566 ft 362 kts 108°
2026-05-07 08:42 -0.14498 32.51955 10131 ft 370 kts 88°
2026-05-07 08:43 -0.14074 32.54472 10635 ft 372 kts 70°
2026-05-07 08:43 -0.12988 32.56830 11183 ft 377 kts 61°
2026-05-07 08:43 -0.11661 32.59113 11735 ft 382 kts 59°
2026-05-07 08:43 -0.10333 32.61424 12255 ft 386 kts 60°
2026-05-07 08:44 -0.09044 32.63780 12799 ft 388 kts 62°
2026-05-07 08:44 -0.07670 32.66050 13298 ft 385 kts 50°
2026-05-07 08:44 -0.05593 32.67784 13856 ft 388 kts 28°
2026-05-07 08:44 -0.03083 32.68706 14371 ft 392 kts 13°
2026-05-07 08:45 -0.00322 32.68919 14875 ft 397 kts 356°
2026-05-07 08:45 0.02391 32.68550 15439 ft 400 kts 352°
2026-05-07 08:45 0.05168 32.68112 15975 ft 407 kts 352°
2026-05-07 08:45 0.07990 32.67675 16529 ft 413 kts 352°
2026-05-07 08:46 0.10844 32.67252 17066 ft 418 kts 353°
2026-05-07 08:46 0.13731 32.66843 17612 ft 421 kts 353°
2026-05-07 08:46 0.16648 32.66439 18173 ft 425 kts 353°
2026-05-07 08:46 0.19626 32.66027 18681 ft 427 kts 353°
2026-05-07 08:47 0.22540 32.65623 19164 ft 430 kts 353°
2026-05-07 08:47 0.25508 32.65211 19658 ft 432 kts 353°
2026-05-07 08:47 0.28493 32.64817 20143 ft 431 kts 356°
2026-05-07 08:47 0.31480 32.65052 20614 ft 431 kts 17°
2026-05-07 08:48 0.34211 32.66271 21156 ft 432 kts 33°
2026-05-07 08:48 0.36547 32.68158 21696 ft 434 kts 48°
2026-05-07 08:48 0.38386 32.70534 22240 ft 433 kts 54°
2026-05-07 08:48 0.40120 32.73001 22788 ft 435 kts 55°
2026-05-07 08:49 0.41854 32.75492 23314 ft 437 kts 55°
2026-05-07 08:49 0.43606 32.77992 23798 ft 439 kts 55°
2026-05-07 08:49 0.45372 32.80487 24211 ft 441 kts 54°
2026-05-07 08:49 0.47154 32.82982 24647 ft 441 kts 54°
2026-05-07 08:50 0.48952 32.85485 25049 ft 444 kts 54°
2026-05-07 08:50 0.50763 32.87997 25373 ft 447 kts 54°
2026-05-07 08:50 0.52582 32.90520 25705 ft 449 kts 54°
2026-05-07 08:50 0.54417 32.93064 26056 ft 451 kts 54°
2026-05-07 08:51 0.56244 32.95597 26405 ft 453 kts 54°
2026-05-07 08:51 0.58085 32.98153 26753 ft 454 kts 54°
2026-05-07 08:51 0.59937 33.00723 27095 ft 456 kts 54°
2026-05-07 08:51 0.61794 33.03299 27353 ft 459 kts 54°
2026-05-07 08:52 0.63676 33.05905 27598 ft 462 kts 53°
2026-05-07 08:52 0.65791 33.08327 27819 ft 464 kts 42°
2026-05-07 08:52 0.68221 33.10396 28087 ft 466 kts 39°
2026-05-07 08:52 0.70739 33.12432 28341 ft 468 kts 39°
2026-05-07 08:53 0.73258 33.14513 28596 ft 470 kts 40°
2026-05-07 08:53 0.75746 33.16635 28853 ft 471 kts 40°
2026-05-07 08:53 0.78226 33.18794 29106 ft 473 kts 41°
2026-05-07 08:53 0.80707 33.20962 29364 ft 474 kts 41°
2026-05-07 08:54 0.83134 33.23195 29618 ft 475 kts 44°
2026-05-07 08:54 0.85471 33.25534 29892 ft 476 kts 45°
2026-05-07 08:54 0.87768 33.27920 30142 ft 476 kts 46°
2026-05-07 08:54 0.90056 33.30322 30336 ft 477 kts 46°
2026-05-07 08:55 0.92353 33.32725 30561 ft 477 kts 45°
2026-05-07 08:55 0.94627 33.35083 30792 ft 477 kts 45°
2026-05-07 08:55 0.96935 33.37461 31011 ft 477 kts 45°
2026-05-07 08:55 0.99249 33.39831 31240 ft 476 kts 45°
2026-05-07 08:56 1.01565 33.42198 31462 ft 476 kts 45°
2026-05-07 08:56 1.03880 33.44560 31691 ft 475 kts 45°
2026-05-07 08:56 1.06188 33.46915 31922 ft 474 kts 45°
2026-05-07 08:56 1.08496 33.49270 32151 ft 473 kts 45°
2026-05-07 08:57 1.10796 33.51618 32389 ft 472 kts 45°
2026-05-07 08:57 1.13092 33.53963 32615 ft 471 kts 45°
2026-05-07 08:57 1.15375 33.56295 32860 ft 469 kts 45°
2026-05-07 08:57 1.17651 33.58620 33091 ft 467 kts 45°
2026-05-07 08:58 1.19929 33.60947 33321 ft 466 kts 45°
2026-05-07 08:58 1.22187 33.63254 33568 ft 464 kts 45°
2026-05-07 08:58 1.24441 33.65557 33817 ft 461 kts 45°
2026-05-07 08:58 1.26677 33.67841 34022 ft 459 kts 45°
2026-05-07 08:59 1.28899 33.70110 34239 ft 456 kts 45°
2026-05-07 08:59 1.31113 33.72373 34448 ft 453 kts 45°
2026-05-07 08:59 1.33306 33.74614 34656 ft 450 kts 45°
2026-05-07 08:59 1.35489 33.76844 34852 ft 447 kts 45°
2026-05-07 09:00 1.39853 33.81302 34933 ft 450 kts 45°
2026-05-07 09:00 1.44243 33.85788 34961 ft 453 kts 45°
2026-05-07 09:01 1.48649 33.90290 34970 ft 457 kts 45°
2026-05-07 09:01 1.53113 33.94852 34971 ft 462 kts 45°
2026-05-07 09:02 1.57627 33.99465 34970 ft 466 kts 45°
2026-05-07 09:02 1.62189 34.04129 34971 ft 471 kts 45°
2026-05-07 09:03 1.66010 34.08035 34966 ft 474 kts 45°
2026-05-07 09:03 1.71433 34.13579 34968 ft 479 kts 45°
2026-05-07 09:04 1.75330 34.17563 34962 ft 483 kts 45°
2026-05-07 09:04 1.80048 34.22388 34963 ft 486 kts 45°
2026-05-07 09:05 1.84684 34.27339 34963 ft 490 kts 48°
2026-05-07 09:05 1.89131 34.32534 34964 ft 493 kts 49°
2026-05-07 09:06 1.93559 34.37743 34961 ft 495 kts 49°
2026-05-07 09:06 1.98051 34.42997 34963 ft 497 kts 49°
2026-05-07 09:07 2.02564 34.48255 34959 ft 499 kts 49°
2026-05-07 09:07 2.07100 34.53538 34963 ft 501 kts 49°
2026-05-07 09:08 2.11644 34.58833 34962 ft 502 kts 49°
2026-05-07 09:08 2.16204 34.64149 34964 ft 504 kts 49°
2026-05-07 09:09 2.20773 34.69475 34961 ft 505 kts 49°
2026-05-07 09:09 2.25345 34.74806 34961 ft 505 kts 49°
2026-05-07 09:10 2.29884 34.80099 34966 ft 504 kts 49°
2026-05-07 09:10 2.34454 34.85428 34971 ft 505 kts 49°
2026-05-07 09:11 2.39020 34.90755 34960 ft 505 kts 49°
2026-05-07 09:11 2.43592 34.96088 34952 ft 505 kts 49°
2026-05-07 09:12 2.48452 35.01146 34958 ft 504 kts 43°